Flag for Austria Weather past 2 weeks in Linz, Upper Austria, Austria

Now
77 °F

Partly sunny.


Feels Like: 79 °F
Forecast: 60 / 82 °F
Wind: 6 mph from East

Location: Linz / Hoersching-Flughafen

Current Time: Jun 30, 2015 at 7:26:56 PM

Latest Report: Jun 30, 2015 at 6:50 PM


Visibility: N/A

Pressure: 30.12 "Hg

Humidity: 57%

Dew point: 61 °F

Location of LinzLocation

Historic Weather in Linz — Graph

°F

Linz temperature yesterday

Maximum temperature yesterday: 77 °F (at 4:20 PM)
Minimum temperature yesterday: 55 °F (at 1:50 AM)
Average temperature yesterday: 66 °F

Past Weeks' High & Low Weather Summary

 TemperatureHumidityPressure
High81 °F (Jun 30, 2:20 PM)100% (Jun 18, 11:20 PM)30.24 "Hg (Jun 18, 11:20 PM)
Low46 °F (Jun 25, 4:50 AM)31% (Jun 25, 2:20 PM)29.71 "Hg (Jun 23, 1:20 AM)
Average61 °F73%30.08 "Hg
* Reported Jun 15 6:20 PM — Jun 30 6:20 PM, Linz, Weather by CustomWeather, © 2015

Note: Actual official high and low records may vary slightly from our data, if they occured in-between our weather recording intervals... More about our weather records

Advertising

Linz weather history for previous 24 hours

 ConditionsComfort  
Time TempWeatherWind HumidityBarometerVisibility
6:20 PM
Tue, Jun 30
75 °FPartly sunny.6 mph61%30.12 "HgN/A
5:50 PM75 °FPartly sunny.6 mph61%30.12 "HgN/A
4:50 PM77 °FPartly sunny.7 mph57%30.12 "HgN/A
4:20 PM77 °FPartly sunny.7 mph54%30.12 "HgN/A
3:50 PM77 °FPartly sunny.6 mph57%30.15 "HgN/A
2:50 PM79 °FPartly sunny.6 mph51%30.15 "HgN/A
2:20 PM81 °FScattered clouds.5 mph42%30.15 "HgN/A
1:50 PM79 °FScattered clouds.7 mph45%30.15 "HgN/A
1:20 PM79 °FScattered clouds.5 mph45%30.15 "HgN/A
12:50 PM79 °FScattered clouds.3 mph51%30.15 "HgN/A
12:20 PM77 °FPartly sunny.5 mph57%30.18 "HgN/A
11:50 AM75 °FPartly sunny.5 mph57%30.18 "HgN/A
11:20 AM73 °FPartly sunny.2 mph61%30.18 "HgN/A
10:50 AM72 °FPartly sunny.2 mph65%30.18 "HgN/A
10:20 AM70 °FPartly sunny.2 mph69%30.18 "HgN/A
9:50 AM68 °FMild.2 mph69%30.18 "HgN/A
9:20 AM66 °FScattered clouds.2 mph73%30.18 "HgN/A
8:50 AM66 °FPartly sunny.2 mph78%30.18 "HgN/A
8:20 AM64 °FSunny.1 mph83%30.18 "Hg10 mi
7:50 AM63 °FSunny.2 mph83%30.18 "Hg10 mi
7:20 AM61 °FSunny.2 mph83%30.18 "Hg10 mi
6:50 AM59 °FSunny.2 mph88%30.18 "Hg10 mi
6:20 AM57 °FSunny.3 mph94%30.18 "Hg10 mi
5:50 AM55 °FClear.3 mph94%30.18 "Hg10 mi
5:20 AM55 °FClear.3 mph94%30.18 "Hg10 mi
4:50 AM55 °FClear.2 mph94%30.18 "Hg10 mi
4:20 AM57 °FClear.2 mph94%30.18 "Hg10 mi
3:50 AM57 °FClear.2 mph94%30.18 "Hg10 mi
3:20 AM59 °FCool.2 mph88%30.18 "HgN/A
2:50 AM59 °FPassing clouds.2 mph88%30.18 "HgN/A
2:20 AM59 °FClear.1 mph94%30.18 "Hg10 mi
1:50 AM59 °FClear.2 mph88%30.18 "Hg10 mi
1:20 AM59 °FClear.2 mph88%30.18 "Hg10 mi
12:50 AM61 °FPassing clouds.3 mph83%30.18 "HgN/A
12:20 AM61 °FCool.2 mph83%30.18 "HgN/A
11:50 PM
Mon, Jun 29
61 °FCool.5 mph83%30.18 "HgN/A
11:20 PM63 °FMild.3 mph83%30.18 "HgN/A
10:50 PM64 °FPassing clouds.5 mph73%30.18 "HgN/A
10:20 PM64 °FClear.3 mph78%30.18 "Hg10 mi
9:50 PM66 °FScattered clouds.5 mph68%30.18 "HgN/A
9:20 PM66 °FScattered clouds.6 mph68%30.15 "HgN/A
8:50 PM68 °FScattered clouds.8 mph64%30.15 "HgN/A
8:20 PM70 °FPassing clouds.10 mph60%30.15 "HgN/A
7:50 PM75 °FPassing clouds.5 mph47%30.12 "HgN/A
7:20 PM77 °FPassing clouds.7 mph42%30.12 "HgN/A
Weather by CustomWeather, © 2015

See weather overviewHow to use our weather pages